This is the latest recevied weather packets stored in our database for station/object K1BWE-1. If no packets are shown the sender has not sent any weather packets the latest 1 day(s).
| Time | Temp. | Humidity | Pressure | Rain* | Wind** | Luminosity | Snow |
|---|---|---|---|---|---|---|---|
| 1777992308 | 13.89° C | 95% | 1013.9 hPa | 0 mm | 0.45 m/s, 257° | 92 W/m² | - |
| 1777992005 | 13.89° C | 96% | 1014.1 hPa | 0 mm | 0 m/s | 82 W/m² | - |
| 1777991702 | 13.89° C | 96% | 1013.8 hPa | 0 mm | 0.45 m/s, 257° | 79 W/m² | - |
| 1777991399 | 13.89° C | 97% | 1013.8 hPa | 0 mm | 0 m/s | 98 W/m² | - |
| 1777991096 | 13.33° C | 97% | 1013.7 hPa | 0 mm | 0 m/s | 108 W/m² | - |
| 1777990793 | 13.33° C | 97% | 1013.8 hPa | 0 mm | 0 m/s | 121 W/m² | - |
| 1777990491 | 13.33° C | 97% | 1013.7 hPa | 0 mm | 0 m/s | 35 W/m² | - |
| 1777990188 | 13.33° C | 97% | 1013.9 hPa | 0 mm | 0 m/s | 36 W/m² | - |
| 1777989884 | 13.33° C | 97% | 1013.9 hPa | 0 mm | 0 m/s | 36 W/m² | - |
| 1777989581 | 13.33° C | 97% | 1013.9 hPa | 0 mm | 0 m/s | 44 W/m² | - |
| 1777989278 | 13.33° C | 97% | 1013.6 hPa | 0 mm | 0 m/s | 46 W/m² | - |
| 1777988974 | 13.33° C | 97% | 1013.7 hPa | 0 mm | 0 m/s | 54 W/m² | - |
| 1777988671 | 13.33° C | 97% | 1013.7 hPa | 0 mm | 0 m/s | 50 W/m² | - |
| 1777988367 | 13.33° C | 97% | 1013.8 hPa | 0 mm | 0.45 m/s, 285° | 39 W/m² | - |
| 1777988065 | 13.33° C | 97% | 1013.8 hPa | 0 mm | 0 m/s | 36 W/m² | - |
| 1777987760 | 13.33° C | 97% | 1013.8 hPa | 0 mm | 0 m/s | 31 W/m² | - |
| 1777987457 | 13.33° C | 97% | 1013.6 hPa | 0 mm | 0 m/s | 28 W/m² | - |
| 1777987155 | 13.33° C | 97% | 1013.3 hPa | 0 mm | 0.45 m/s, 295° | 28 W/m² | - |
| 1777986851 | 12.78° C | 97% | 1013.2 hPa | 0 mm | 0 m/s | 29 W/m² | - |
| 1777986549 | 12.78° C | 97% | 1013.4 hPa | 0 mm | 0 m/s | 25 W/m² | - |
| 1777986247 | 12.78° C | 97% | 1013.2 hPa | 0 mm | 0 m/s | 18 W/m² | - |
| 1777985944 | 12.78° C | 97% | 1013.3 hPa | 0 mm | 0 m/s | 12 W/m² | - |
| 1777985642 | 12.78° C | 97% | 1013.2 hPa | 0 mm | 0 m/s | 10 W/m² | - |
| 1777985338 | 12.78° C | 97% | 1013.1 hPa | 0 mm | 0 m/s | 7 W/m² | - |
| 1777985035 | 12.78° C | 97% | 1013 hPa | 0 mm | 0 m/s | 2 W/m² | - |
* Rain latest hour (hover to see other rain measurements)
** Current wind speed in m/s (hover to see current wind gust speed)